Voltar ao catálogo

STARLINK-35285

AtivoComunicaçõesSSO
NORAD 65807·PAYLOAD·🇺🇸 United States

Lançado Sep 26, 2025 de Vandenberg Space Force Base

Loading…

Próximas Passagens (próximas 24 horas)

TLE

AtualizadoSource: CelesTrak SupGP

Época: Sep 14, 2026, 21:04 UTC

1 65807C 25218S   26257.87826389  .00007478  00000+0  23218-3 0  2578
2 65807  97.2843 115.3074 0001559  92.5269 152.9635 15.33427196    18

Acompanhe STARLINK-35285 em tempo real com AllMySat

Download on the App Store